Tracking 22124 objects as of 23-Jan-2021
HD Live streaming from Space Station
objects crossing your sky now

SSC

Track SSC now!
10-day predictions
SSC is classified as:


NORAD ID: 13874
Int'l Code: 1983-008H
Perigee: 381.3 km
Apogee: 1,726.5 km
Inclination: 63.3 °
Period: 106.1 minutes
Semi major axis: 7424 km
RCS: Unknown
Launch date: February 9, 1983
Source: United States (US)
Launch site: AIR FORCE WESTERN TEST RANGE (AFWTR)
aabbcc
Your satellite tracking list
Your tracking list is empty




NASA's NSSDC Master Catalog

Two Line Element Set (TLE):
1 13874U 83008H   21022.52387686  .00000852  00000-0  74833-4 0  9998
2 13874  63.2939 317.0817 0905892  99.0403 271.4141 13.56959959 81945
Source of the keplerian elements: McCants